Date String (YYYY-MM-DD hh:mm:ss) UTC,Instrument flags,absolute air pressure of the measurement (hPa),sample flow rate (lpm),inlet stack bypass flow (lpm),air temperature of the measurement (°C),ambient temperature measured by the external sensor (°C),aerosol sample conditioner tube jacket temperature (°C),OPC LED temperature (°C),internal box temperature (°C),relative humidity of the measurement (%),span deviation,mass concentration of particles derived from Lorenz-Mie calculation of OPC scattering (μg/m³),mass concentration of particles derived from Lorenz-Mie calculation of OPC scattering (μg/m³),mass concentration of particles derived from Lorenz-Mie calculation of OPC scattering (μg/m³)
DateTimeUTC,F1_M11,P_M11,Q1_M11,Q2_M11,T1_M11,T2_M11,T3_M11,T4_M11,T5_M11,U1_M11,ZSPAN_M11,X0_M11,X2_M11,X1_M11
2023-11-30 22:00:00,SystemResetWarning,0821.8,5.01,000.00,023.0,022.4,000.0,031.0,024.5,10.3,0000.0,0010.53,0004.97,0004.53
2023-11-30 22:01:00,SystemResetWarning,0821.8,5.00,000.00,023.0,022.5,000.0,031.0,024.6,10.2,0000.0,0010.14,0004.99,0004.56
2023-11-30 22:02:00,SystemResetWarning,0821.8,5.01,000.00,023.1,022.5,000.0,031.1,024.6,10.2,0000.0,0010.16,0005.01,0004.57
2023-11-30 22:03:00,SystemResetWarning,0821.7,5.01,000.00,023.1,022.5,000.0,031.1,024.6,10.3,0000.0,0010.18,0004.99,0004.59
2023-11-30 22:04:00,SystemResetWarning,0821.7,5.00,000.00,023.1,022.5,000.0,031.1,024.6,10.4,0000.0,0009.64,0005.04,0004.61
2023-11-30 22:05:00,SystemResetWarning,0821.8,4.99,000.00,023.1,022.6,000.0,031.1,024.6,10.4,0000.0,0009.68,0005.11,0004.67
2023-11-30 22:06:00,SystemResetWarning,0821.8,5.00,000.00,023.2,022.6,000.0,031.2,024.7,10.4,0000.0,0009.62,0005.17,0004.71
2023-11-30 22:07:00,SystemResetWarning,0821.8,5.01,000.00,023.2,022.6,000.0,031.2,024.6,10.3,0000.0,0009.54,0005.21,0004.73
2023-11-30 22:08:00,SystemResetWarning,0821.8,5.00,000.00,023.2,022.5,000.0,031.2,024.6,10.2,0000.0,0009.56,0005.24,0004.75
2023-11-30 22:09:00,SystemResetWarning,0821.7,5.00,000.00,023.2,022.5,000.0,031.2,024.6,10.1,0000.0,0009.40,0005.26,0004.78
2023-11-30 22:10:00,SystemResetWarning,0821.7,5.00,000.00,023.2,022.5,000.0,031.2,024.6,10.0,0000.0,0009.46,0005.29,0004.80
2023-11-30 22:11:00,SystemResetWarning,0821.8,4.99,000.00,023.2,022.5,000.0,031.3,024.6,10.1,0000.0,0009.67,0005.31,0004.81
2023-11-30 22:12:00,SystemResetWarning,0821.8,5.00,000.00,023.2,022.5,000.0,031.3,024.6,10.1,0000.0,0009.73,0005.31,0004.82
2023-11-30 22:13:00,SystemResetWarning,0821.8,5.00,000.00,023.2,022.5,000.0,031.3,024.6,10.1,0000.0,0009.81,0005.34,0004.82
2023-11-30 22:14:00,SystemResetWarning,0821.8,5.00,000.00,023.2,022.4,000.0,031.3,024.6,10.1,0000.0,0009.79,0005.35,0004.81
2023-11-30 22:15:00,SystemResetWarning,0821.8,5.00,000.00,023.2,022.4,000.0,031.3,024.6,10.1,0000.0,0009.58,0005.34,0004.81
2023-11-30 22:16:00,SystemResetWarning,0821.8,5.01,000.00,023.2,022.4,000.0,031.3,024.6,10.1,0000.0,0010.16,0005.34,0004.80
2023-11-30 22:17:00,SystemResetWarning,0821.8,5.00,000.00,023.2,022.4,000.0,031.3,024.6,10.1,0000.0,0010.47,0005.37,0004.82
2023-11-30 22:18:00,SystemResetWarning,0821.8,5.00,000.00,023.2,022.4,000.0,031.3,024.6,10.2,0000.0,0010.18,0005.39,0004.83
2023-11-30 22:19:00,SystemResetWarning,0821.9,5.01,000.00,023.2,022.4,000.0,031.4,024.6,10.3,0000.0,0010.21,0005.41,0004.85
2023-11-30 22:20:00,SystemResetWarning,0821.9,5.00,000.00,023.3,022.4,000.0,031.4,024.7,10.3,0000.0,0010.37,0005.42,0004.87
2023-11-30 22:21:00,SystemResetWarning,0821.9,5.00,000.00,023.3,022.4,000.0,031.4,024.7,10.3,0000.0,0010.43,0005.43,0004.88
2023-11-30 22:22:00,SystemResetWarning,0821.9,5.00,000.00,023.3,022.4,000.0,031.4,024.6,10.2,0000.0,0010.46,0005.47,0004.90
2023-11-30 22:23:00,SystemResetWarning,0821.9,5.00,000.00,023.3,022.4,000.0,031.4,024.7,10.3,0000.0,0010.49,0005.49,0004.92
2023-11-30 22:24:00,SystemResetWarning,0821.9,5.00,000.00,023.3,022.4,000.0,031.4,024.6,10.4,0000.0,0010.43,0005.48,0004.94
2023-11-30 22:25:00,SystemResetWarning,0821.9,5.00,000.00,023.3,022.4,000.0,031.4,024.6,10.2,0000.0,0010.37,0005.52,0004.99
2023-11-30 22:26:00,SystemResetWarning,0821.9,5.00,000.00,023.3,022.4,000.0,031.4,024.7,10.1,0000.0,0010.43,0005.57,0005.02
2023-11-30 22:27:00,SystemResetWarning,0821.8,5.00,000.00,023.3,022.4,000.0,031.4,024.6,10.2,0000.0,0009.85,0005.56,0005.02
2023-11-30 22:28:00,SystemResetWarning,0821.8,5.00,000.00,023.3,022.4,000.0,031.4,024.7,10.2,0000.0,0009.35,0005.53,0005.03
2023-11-30 22:29:00,SystemResetWarning,0821.9,5.00,000.00,023.3,022.4,000.0,031.4,024.7,10.2,0000.0,0009.28,0005.56,0005.05
2023-11-30 22:30:00,SystemResetWarning,0821.8,5.00,000.00,023.3,022.4,000.0,031.4,024.7,10.3,0000.0,0009.37,0005.59,0005.06
2023-11-30 22:31:00,SystemResetWarning,0821.8,5.00,000.00,023.3,022.4,000.0,031.5,024.7,10.4,0000.0,0009.28,0005.61,0005.07
2023-11-30 22:32:00,SystemResetWarning,0821.8,5.00,000.00,023.3,022.4,000.0,031.5,024.7,10.4,0000.0,0009.20,0005.62,0005.08
2023-11-30 22:33:00,SystemResetWarning,0821.8,5.00,000.00,023.3,022.4,000.0,031.5,024.7,10.3,0000.0,0009.18,0005.61,0005.09
2023-11-30 22:34:00,SystemResetWarning,0821.8,5.00,000.00,023.3,022.3,000.0,031.5,024.7,10.4,0000.0,0009.25,0005.63,0005.09
2023-11-30 22:35:00,SystemResetWarning,0821.8,5.00,000.00,023.3,022.3,000.0,031.5,024.7,10.5,0000.0,0009.36,0005.66,0005.10
2023-11-30 22:36:00,SystemResetWarning,0821.8,5.00,000.00,023.3,022.3,000.0,031.5,024.7,10.4,0000.0,0009.33,0005.65,0005.10
2023-11-30 22:37:00,SystemResetWarning,0822.0,5.00,000.00,023.3,022.3,000.0,031.5,024.7,10.4,0000.0,0009.61,0005.64,0005.10
2023-11-30 22:38:00,SystemResetWarning,0821.9,5.00,000.00,023.3,022.3,000.0,031.5,024.7,10.5,0000.0,0009.94,0005.62,0005.10
2023-11-30 22:39:00,SystemResetWarning,0821.9,5.00,000.00,023.3,022.3,000.0,031.5,024.7,10.6,0000.0,0010.44,0005.64,0005.11
2023-11-30 22:40:00,SystemResetWarning,0821.9,5.00,000.00,023.3,022.3,000.0,031.5,024.7,10.6,0000.0,0010.42,0005.65,0005.11
2023-11-30 22:41:00,SystemResetWarning,0821.8,5.01,000.00,023.3,022.3,000.0,031.5,024.7,10.7,0000.0,0010.16,0005.64,0005.12
2023-11-30 22:42:00,SystemResetWarning,0821.8,5.01,000.00,023.3,022.3,000.0,031.5,024.7,10.8,0000.0,0010.75,0005.65,0005.13
2023-11-30 22:43:00,SystemResetWarning,0821.8,4.99,000.00,023.3,022.3,000.0,031.5,024.7,10.8,0000.0,0011.31,0005.70,0005.14
2023-11-30 22:44:00,SystemResetWarning,0821.9,4.99,000.00,023.3,022.3,000.0,031.5,024.7,10.5,0000.0,0011.29,0005.71,0005.15
2023-11-30 22:45:00,SystemResetWarning,0821.8,5.00,000.00,023.3,022.3,000.0,031.5,024.7,10.4,0000.0,0010.98,0005.67,0005.15
2023-11-30 22:46:00,SystemResetWarning,0821.8,4.99,000.00,023.3,022.3,000.0,031.5,024.7,10.5,0000.0,0010.88,0005.66,0005.16
2023-11-30 22:47:00,SystemResetWarning,0821.8,5.00,000.00,023.3,022.3,000.0,031.5,024.7,10.5,0000.0,0010.78,0005.63,0005.17
2023-11-30 22:48:00,SystemResetWarning,0821.8,5.01,000.00,023.3,022.3,000.0,031.5,024.7,10.5,0000.0,0010.60,0005.62,0005.17
2023-11-30 22:49:00,SystemResetWarning,0821.8,5.01,000.00,023.3,022.3,000.0,031.5,024.7,10.5,0000.0,0010.48,0005.65,0005.17
2023-11-30 22:50:00,SystemResetWarning,0821.8,4.99,000.00,023.3,022.3,000.0,031.5,024.7,10.7,0000.0,0010.08,0005.66,0005.17
2023-11-30 22:51:00,SystemResetWarning,0821.8,4.99,000.00,023.3,022.3,000.0,031.5,024.7,10.7,0000.0,0010.72,0005.67,0005.17
2023-11-30 22:52:00,SystemResetWarning,0821.9,5.00,000.00,023.3,022.3,000.0,031.5,024.7,10.8,0000.0,0010.88,0005.68,0005.16
2023-11-30 22:53:00,SystemResetWarning,0821.9,5.01,000.00,023.3,022.3,000.0,031.5,024.7,10.9,0000.0,0010.67,0005.67,0005.15
2023-11-30 22:54:00,SystemResetWarning,0822.0,5.00,000.00,023.3,022.3,000.0,031.5,024.7,10.8,0000.0,0011.05,0005.64,0005.15
2023-11-30 22:55:00,SystemResetWarning,0822.0,4.99,000.00,023.3,022.3,000.0,031.5,024.7,10.8,0000.0,0011.69,0005.63,0005.15
2023-11-30 22:56:00,SystemResetWarning,0822.0,5.00,000.00,023.3,022.3,000.0,031.5,024.7,10.7,0000.0,0011.76,0005.64,0005.15
2023-11-30 22:57:00,SystemResetWarning,0822.0,5.00,000.00,023.3,022.3,000.0,031.5,024.7,10.7,0000.0,0011.87,0005.69,0005.15
2023-11-30 22:58:00,SystemResetWarning,0821.9,5.00,000.00,023.3,022.3,000.0,031.5,024.7,10.7,0000.0,0012.00,0005.72,0005.16
2023-11-30 22:59:00,SystemResetWarning,0821.9,5.00,000.00,023.3,022.3,000.0,031.5,024.7,10.7,0000.0,0012.11,0005.75,0005.17
